Location: Marstown
(39.5056°N, 77.0820°W)
Time: 12:47:30
(UTC-05:00)

N. Korean satellite - Visible Passes

Search period start: 07 December 2019 00:00
Search period end: 17 December 2019 00:00
Orbit: 456 x 506 km, 97.2° (Epoch: 06 December)

Date Brightness Start Highest point End Pass type
(mag) Time Alt. Az. Time Alt. Az. Time Alt. Az.
07 Dec 6.4 06:03:24 10° N 06:06:58 84° WNW 06:10:27 10° SSW visible
07 Dec 9.8 18:12:09 10° SW 18:14:32 16° W 18:16:55 10° NW visible
08 Dec 7.9 05:38:09 10° NNE 05:41:31 40° E 05:44:48 10° S visible
08 Dec 8.6 17:45:36 10° SSW 17:48:58 33° W 17:52:22 10° NNW visible
09 Dec 9.4 05:13:24 10° NE 05:15:58 19° E 05:18:30 10° SE visible
09 Dec 7.7 06:46:30 10° NNW 06:49:17 22° WNW 06:52:01 10° WSW visible
09 Dec 6.9 17:19:48 10° S 17:23:30 74° WSW 17:27:13 10° NNW visible
10 Dec 6.7 06:20:36 10° N 06:23:59 46° WNW 06:27:19 10° SSW visible
11 Dec 6.7 05:55:04 10° NNE 05:58:36 74° ESE 06:02:02 10° S visible
11 Dec 9.6 18:03:20 10° SW 18:06:08 20° W 18:08:56 10° NW visible
12 Dec 8.4 05:29:57 10° NNE 05:33:06 31° E 05:36:12 10° SSE visible
12 Dec 8.1 17:37:05 10° S 17:40:36 42° W 17:44:08 10° NNW visible
13 Dec 9.7 05:05:28 10° ENE 05:07:30 15° E 05:09:32 10° SE visible
13 Dec 7.4 06:37:56 10° NNW 06:40:57 27° WNW 06:43:54 10° SW visible
13 Dec 6.6 17:11:27 10° SSE 17:15:09 86° ENE 17:18:51 10° N visible
14 Dec 6.4 06:12:09 10° N 06:15:37 61° WNW 06:19:00 10° SSW visible
14 Dec 10.0 18:21:43 10° WSW 18:23:19 12° W 18:24:55 10° WNW visible
15 Dec 7.2 05:46:45 10° NNE 05:50:11 55° E 05:53:33 10° S visible
15 Dec 9.2 17:54:37 10° SSW 17:57:43 25° W 18:00:48 10° NW visible
16 Dec 8.9 05:21:45 10° NE 05:24:39 24° E 05:27:29 10° SSE visible
16 Dec 7.5 17:28:35 10° S 17:32:12 54° W 17:35:48 10° NNW visible
